| time (UTC) | temp C | wind direction | speed KPH | gust KPH | rain 1hr cm | rain 24hr cm | rain mn cm | humidity % | barometer mb |
| 20260507140952 | 16 | 167 | 9.7 | 17.7 | 0.00 | 0.00 | 0.00 | 53 | 1014.7 |
| 20260507135922 | 16 | 142 | 6.4 | 16.1 | 0.00 | 0.00 | 0.00 | 53 | 1014.8 |
| 20260507134850 | 16 | 211 | 8.0 | 16.1 | 0.00 | 0.00 | 0.00 | 50 | 1015.0 |
| 20260507133827 | 16 | 192 | 6.4 | 14.5 | 0.00 | 0.00 | 0.00 | 49 | 1015.0 |
| 20260507132805 | 17 | 214 | 9.7 | 14.5 | 0.00 | 0.00 | 0.00 | 49 | 1014.9 |
| 20260507131816 | 16 | 191 | 9.7 | 9.7 | 0.00 | 0.00 | 0.00 | 53 | 1015.0 |
| 20260507130756 | 16 | 197 | 9.7 | 17.7 | 0.00 | 0.00 | 0.00 | 50 | 1015.0 |
| 20260507125815 | 17 | 182 | 11.3 | 17.7 | 0.00 | 0.00 | 0.00 | 49 | 1014.8 |
| 20260507124838 | 17 | 192 | 9.7 | 20.9 | 0.00 | 0.00 | 0.00 | 49 | 1014.9 |
| 20260507123856 | 17 | 201 | 9.7 | 20.9 | 0.00 | 0.00 | 0.00 | 47 | 1015.1 |
| 20260507122911 | 17 | 178 | 9.7 | 16.1 | 0.00 | 0.00 | 0.00 | 51 | 1014.8 |
| 20260507120804 | 16 | 178 | 8.0 | 17.7 | 0.00 | 0.00 | 0.00 | 51 | 1015.1 |
| 20260507115826 | 17 | 221 | 9.7 | 14.5 | 0.00 | 0.00 | 0.00 | 52 | 1015.1 |
| 20260507114846 | 16 | 218 | 9.7 | 17.7 | 0.00 | 0.00 | 0.00 | 54 | 1015.2 |
| 20260507113908 | 15 | 210 | 8.0 | 17.7 | 0.00 | 0.00 | 0.00 | 57 | 1015.3 |
| 20260507112901 | 15 | 210 | 9.7 | 17.7 | 0.00 | 0.00 | 0.00 | 58 | 1015.4 |
| 20260507111915 | 15 | 185 | 9.7 | 14.5 | 0.00 | 0.00 | 0.00 | 58 | 1015.4 |
| 20260507110855 | 15 | 215 | 9.7 | 16.1 | 0.00 | 0.00 | 0.00 | 61 | 1015.4 |
| 20260507105848 | 15 | 193 | 9.7 | 17.7 | 0.00 | 0.00 | 0.00 | 59 | 1015.6 |
| 20260507104909 | 14 | 186 | 9.7 | 17.7 | 0.00 | 0.00 | 0.00 | 66 | 1015.6 |
| 20260507103918 | 13 | 199 | 8.0 | 12.9 | 0.00 | 0.00 | 0.00 | 66 | 1015.7 |
| 20260507102936 | 13 | 201 | 9.7 | 16.1 | 0.00 | 0.00 | 0.00 | 67 | 1015.8 |
| 20260507101902 | 13 | 171 | 9.7 | 20.9 | 0.00 | 0.00 | 0.00 | 68 | 1015.8 |
| 20260507100922 | 12 | 169 | 9.7 | 20.9 | 0.00 | 0.00 | 0.00 | 68 | 1015.8 |
| 20260507095912 | 12 | 195 | 9.7 | 17.7 | 0.00 | 0.00 | 0.00 | 70 | 1015.7 |
| 20260507094926 | 12 | 196 | 8.0 | 17.7 | 0.00 | 0.00 | 0.00 | 71 | 1015.7 |
| 20260507093859 | 12 | 192 | 8.0 | 14.5 | 0.00 | 0.00 | 0.00 | 73 | 1015.7 |
| 20260507092911 | 11 | 251 | 8.0 | 14.5 | 0.00 | 0.00 | 0.00 | 73 | 1015.9 |
| 20260507091854 | 11 | 179 | 9.7 | 14.5 | 0.00 | 0.00 | 0.00 | 74 | 1015.8 |
| 20260507090914 | 11 | 182 | 9.7 | 12.9 | 0.00 | 0.00 | 0.00 | 75 | 1015.9 |
| 20260507090356 | 11 | 212 | 9.7 | 19.3 | 0.00 | 0.00 | 0.00 | 74 | 1016.0 |
| 20260507085329 | 11 | 224 | 9.7 | 19.3 | 0.00 | 0.00 | 0.00 | 77 | 1015.8 |
| 20260507084309 | 10 | 189 | 8.0 | 17.7 | 0.00 | 0.00 | 0.00 | 79 | 1016.0 |
| 20260507083330 | 10 | 191 | 9.7 | 17.7 | 0.00 | 0.00 | 0.00 | 79 | 1016.0 |
| 20260507082314 | 10 | 193 | 8.0 | 14.5 | 0.00 | 0.00 | 0.00 | 81 | 1016.0 |
| 20260507081243 | 9 | 215 | 8.0 | 22.5 | 0.00 | 0.00 | 0.00 | 82 | 1015.9 |
| 20260507080300 | 8 | 187 | 8.0 | 22.5 | 0.00 | 0.00 | 0.00 | 83 | 1015.8 |
| 20260507075249 | 8 | 187 | 8.0 | 14.5 | 0.00 | 0.00 | 0.00 | 85 | 1015.9 |
| 20260507074247 | 8 | 237 | 8.0 | 12.9 | 0.00 | 0.00 | 0.00 | 85 | 1016.0 |
| 20260507073255 | 7 | 198 | 6.4 | 12.9 | 0.00 | 0.00 | 0.00 | 86 | 1015.9 |
| 20260507071133 | 7 | 198 | 6.4 | 12.9 | 0.00 | 0.00 | 0.00 | 87 | 1016.0 |
| 20260507070121 | 7 | 205 | 6.4 | 11.3 | 0.00 | 0.00 | 0.00 | 88 | 1015.9 |
| 20260507065111 | 6 | 230 | 6.4 | 12.9 | 0.00 | 0.00 | 0.00 | 88 | 1015.9 |
| 20260507064104 | 6 | 191 | 6.4 | 12.9 | 0.00 | 0.00 | 0.00 | 89 | 1015.7 |
| 20260507063114 | 6 | 204 | 6.4 | 12.9 | 0.00 | 0.00 | 0.00 | 88 | 1015.8 |
| 20260507062102 | 6 | 189 | 6.4 | 8.0 | 0.00 | 0.00 | 0.00 | 89 | 1015.8 |
| 20260507061126 | 6 | 212 | 6.4 | 8.0 | 0.00 | 0.00 | 0.00 | 88 | 1015.8 |
| 20260507060115 | 5 | 210 | 6.4 | 9.7 | 0.00 | 0.00 | 0.00 | 88 | 1015.6 |
| 20260507053936 | 5 | 222 | 6.4 | 12.9 | 0.00 | 0.00 | 0.00 | 87 | 1015.5 |
| 20260507052938 | 5 | 225 | 6.4 | 14.5 | 0.00 | 0.00 | 0.00 | 87 | 1015.4 |
| 20260507051910 | 5 | 237 | 6.4 | 14.5 | 0.00 | 0.00 | 0.00 | 87 | 1015.6 |
| 20260507050912 | 5 | 212 | 6.4 | 8.0 | 0.00 | 0.00 | 0.00 | 86 | 1015.4 |
| 20260507045915 | 5 | 183 | 4.8 | 8.0 | 0.00 | 0.00 | 0.00 | 86 | 1015.4 |
| 20260507044851 | 5 | 205 | 6.4 | 8.0 | 0.00 | 0.00 | 0.00 | 86 | 1015.3 |
| 20260507043834 | 5 | 212 | 6.4 | 6.4 | 0.00 | 0.00 | 0.00 | 86 | 1015.5 |
| 20260507042843 | 5 | 209 | 4.8 | 6.4 | 0.00 | 0.00 | 0.00 | 86 | 1015.4 |
| 20260507041845 | 5 | 223 | 4.8 | 6.4 | 0.00 | 0.00 | 0.00 | 86 | 1015.4 |
| 20260507040907 | 5 | 208 | 4.8 | 6.4 | 0.00 | 0.00 | 0.00 | 86 | 1015.3 |
| 20260507033655 | 5 | 206 | 4.8 | 6.4 | 0.00 | 0.00 | 0.00 | 86 | 1015.3 |
| 20260507032720 | 5 | 215 | 4.8 | 8.0 | 0.00 | 0.00 | 0.00 | 86 | 1015.4 |
| 20260507031721 | 5 | 231 | 4.8 | 8.0 | 0.00 | 0.00 | 0.00 | 86 | 1015.3 |
| 20260507030729 | 5 | 205 | 4.8 | 8.0 | 0.00 | 0.00 | 0.00 | 86 | 1015.4 |
| 20260507025749 | 5 | 209 | 4.8 | 8.0 | 0.00 | 0.00 | 0.00 | 86 | 1015.3 |
| 20260507024755 | 5 | 216 | 4.8 | 6.4 | 0.00 | 0.00 | 0.00 | 86 | 1015.3 |
| 20260507022620 | 5 | 201 | 4.8 | 6.4 | 0.00 | 0.00 | 0.00 | 85 | 1015.6 |
| 20260507021626 | 5 | 205 | 4.8 | 6.4 | 0.00 | 0.00 | 0.00 | 85 | 1015.4 |
| 20260507020604 | 5 | 234 | 4.8 | 6.4 | 0.00 | 0.00 | 0.00 | 85 | 1015.4 |
| 20260507015625 | 5 | 215 | 4.8 | 6.4 | 0.00 | 0.00 | 0.00 | 85 | 1015.4 |
| 20260507014641 | 5 | 210 | 4.8 | 6.4 | 0.00 | 0.00 | 0.00 | 85 | 1015.5 |
| 20260507013643 | 5 | 208 | 4.8 | 6.4 | 0.00 | 0.00 | 0.00 | 85 | 1015.6 |
| 20260507012617 | 5 | 221 | 4.8 | 8.0 | 0.00 | 0.00 | 0.00 | 85 | 1015.5 |
| 20260507011614 | 5 | 237 | 6.4 | 8.0 | 0.00 | 0.00 | 0.00 | 85 | 1015.6 |
| 20260507010637 | 5 | 226 | 6.4 | 6.4 | 0.00 | 0.00 | 0.00 | 84 | 1015.7 |
| 20260507004504 | 5 | 222 | 4.8 | 6.4 | 0.00 | 0.00 | 0.00 | 83 | 1015.6 |
| 20260507003448 | 5 | 227 | 4.8 | 6.4 | 0.00 | 0.00 | 0.00 | 83 | 1015.5 |
| 20260507002508 | 5 | 207 | 4.8 | 6.4 | 0.00 | 0.00 | 0.00 | 84 | 1015.6 |
| 20260507000336 | 5 | 221 | 4.8 | 8.0 | 0.00 | 0.00 | 0.00 | 84 | 1015.7 |
| 20260506235341 | 5 | 218 | 3.2 | 6.4 | 0.00 | 0.00 | 0.00 | 84 | 1015.8 |
| 20260506234313 | 5 | 205 | 3.2 | 6.4 | 0.00 | 0.00 | 0.00 | 83 | 1015.8 |
| 20260506233244 | 5 | 220 | 3.2 | 6.4 | 0.00 | 0.00 | 0.00 | 82 | 1015.9 |
| 20260506232253 | 5 | 224 | 4.8 | 6.4 | 0.00 | 0.00 | 0.00 | 82 | 1015.9 |
| 20260506231229 | 5 | 215 | 4.8 | 6.4 | 0.00 | 0.00 | 0.00 | 81 | 1015.8 |
| 20260506230212 | 5 | 210 | 4.8 | 6.4 | 0.00 | 0.00 | 0.00 | 80 | 1015.8 |
| 20260506225229 | 5 | 226 | 4.8 | 6.4 | 0.00 | 0.00 | 0.00 | 80 | 1016.0 |
| 20260506224218 | 5 | 212 | 4.8 | 6.4 | 0.00 | 0.00 | 0.00 | 80 | 1015.8 |
| 20260506223228 | 6 | 215 | 4.8 | 6.4 | 0.00 | 0.00 | 0.00 | 80 | 1015.8 |
| 20260506221158 | 6 | 185 | 4.8 | 6.4 | 0.00 | 0.00 | 0.00 | 80 | 1015.7 |
| 20260506220200 | 6 | 218 | 4.8 | 6.4 | 0.00 | 0.00 | 0.00 | 80 | 1015.5 |
| 20260506215145 | 6 | 213 | 4.8 | 8.0 | 0.00 | 0.00 | 0.00 | 79 | 1015.5 |
| 20260506214133 | 6 | 198 | 4.8 | 8.0 | 0.00 | 0.00 | 0.00 | 79 | 1015.5 |
| 20260506213110 | 6 | 216 | 4.8 | 8.0 | 0.00 | 0.00 | 0.00 | 79 | 1015.3 |
| 20260506212056 | 6 | 207 | 4.8 | 8.0 | 0.00 | 0.00 | 0.00 | 78 | 1015.3 |
| 20260506211051 | 6 | 186 | 4.8 | 8.0 | 0.00 | 0.00 | 0.00 | 78 | 1015.3 |
| 20260506210055 | 7 | 203 | 4.8 | 8.0 | 0.00 | 0.00 | 0.00 | 78 | 1015.2 |
| 20260506205048 | 7 | 171 | 4.8 | 11.3 | 0.00 | 0.00 | 0.00 | 78 | 1015.1 |
| 20260506204053 | 7 | 204 | 4.8 | 11.3 | 0.00 | 0.00 | 0.00 | 77 | 1015.0 |
| 20260506203100 | 7 | 205 | 4.8 | 9.7 | 0.00 | 0.00 | 0.00 | 77 | 1015.0 |
| 20260506202121 | 7 | 187 | 4.8 | 9.7 | 0.00 | 0.00 | 0.00 | 76 | 1014.9 |
| 20260506201047 | 7 | 184 | 4.8 | 6.4 | 0.00 | 0.00 | 0.00 | 76 | 1014.9 |
| 20260506200029 | 8 | 181 | 4.8 | 8.0 | 0.00 | 0.00 | 0.00 | 75 | 1014.9 |
| 20260506195035 | 8 | 196 | 4.8 | 9.7 | 0.00 | 0.00 | 0.00 | 74 | 1014.9 |
| 20260506194022 | 8 | 186 | 4.8 | 9.7 | 0.00 | 0.00 | 0.00 | 74 | 1014.8 |
| 20260506193036 | 8 | 184 | 4.8 | 6.4 | 0.00 | 0.00 | 0.00 | 74 | 1014.7 |
| 20260506192036 | 8 | 192 | 4.8 | 9.7 | 0.00 | 0.00 | 0.00 | 74 | 1014.6 |
| 20260506191008 | 8 | 174 | 4.8 | 11.3 | 0.00 | 0.00 | 0.00 | 74 | 1014.7 |
| 20260506185943 | 9 | 199 | 4.8 | 11.3 | 0.00 | 0.00 | 0.00 | 74 | 1014.7 |
| 20260506184921 | 9 | 206 | 4.8 | 9.7 | 0.00 | 0.00 | 0.00 | 74 | 1014.8 |
| 20260506182814 | 9 | 201 | 4.8 | 9.7 | 0.00 | 0.00 | 0.00 | 73 | 1014.7 |
| 20260506181803 | 9 | 191 | 4.8 | 9.7 | 0.00 | 0.00 | 0.00 | 72 | 1014.8 |
| 20260506180805 | 10 | 165 | 4.8 | 9.7 | 0.00 | 0.00 | 0.00 | 72 | 1014.6 |
| 20260506175759 | 10 | 182 | 6.4 | 11.3 | 0.00 | 0.00 | 0.00 | 71 | 1014.5 |
| 20260506174823 | 10 | 164 | 6.4 | 11.3 | 0.00 | 0.00 | 0.00 | 71 | 1014.4 |
| 20260506173757 | 10 | 186 | 6.4 | 14.5 | 0.00 | 0.00 | 0.00 | 70 | 1014.3 |
| 20260506172739 | 10 | 193 | 6.4 | 14.5 | 0.00 | 0.00 | 0.00 | 70 | 1014.4 |
| 20260506171800 | 10 | 183 | 6.4 | 12.9 | 0.00 | 0.00 | 0.00 | 70 | 1014.2 |
| 20260506170824 | 10 | 157 | 6.4 | 12.9 | 0.00 | 0.00 | 0.00 | 69 | 1014.1 |
| 20260506164723 | 11 | 181 | 6.4 | 14.5 | 0.00 | 0.00 | 0.00 | 68 | 1014.1 |
| 20260506163746 | 11 | 177 | 6.4 | 14.5 | 0.00 | 0.00 | 0.00 | 67 | 1014.1 |
| 20260506162805 | 11 | 175 | 6.4 | 12.9 | 0.00 | 0.00 | 0.00 | 67 | 1014.1 |
| 20260506161738 | 11 | 167 | 6.4 | 12.9 | 0.00 | 0.00 | 0.00 | 66 | 1014.1 |
| 20260506160733 | 11 | 169 | 6.4 | 12.9 | 0.00 | 0.00 | 0.00 | 66 | 1014.1 |
| 20260506155709 | 11 | 142 | 6.4 | 14.5 | 0.00 | 0.00 | 0.00 | 63 | 1014.2 |
| 20260506154653 | 12 | 172 | 6.4 | 14.5 | 0.00 | 0.00 | 0.00 | 62 | 1014.2 |
| 20260506153714 | 12 | 162 | 6.4 | 14.5 | 0.00 | 0.00 | 0.00 | 62 | 1014.0 |
| 20260506152729 | 12 | 150 | 6.4 | 17.7 | 0.00 | 0.00 | 0.00 | 60 | 1014.0 |
| 20260506150548 | 12 | 126 | 4.8 | 12.9 | 0.00 | 0.00 | 0.00 | 60 | 1014.1 |
| 20260506145527 | 12 | 168 | 4.8 | 12.9 | 0.00 | 0.00 | 0.00 | 60 | 1014.0 |
| 20260506144550 | 12 | 174 | 4.8 | 12.9 | 0.00 | 0.00 | 0.00 | 62 | 1013.9 |
| 20260506143550 | 11 | 174 | 6.4 | 12.9 | 0.00 | 0.00 | 0.00 | 61 | 1013.9 |
| 20260506142600 | 11 | 166 | 6.4 | 12.9 | 0.00 | 0.00 | 0.00 | 62 | 1014.0 |